Location: Caltech
(34.1382°N, 118.1253°W)
Time: 00:02:45
(UTC-07:00)

Cosmos 1484 Rocket - Visible Passes

Search period start: 03 September 2014 00:00
Search period end: 13 September 2014 00:00
Orbit: 515 x 574 km, 97.4° (Epoch: 03 September)

Date Brightness Start Highest point End Pass type
(mag) Time Alt. Az. Time Alt. Az. Time Alt. Az.
03 Sep 2.6 20:13:31 10° SSE 20:17:14 71° ENE 20:20:59 10° N visible
04 Sep 2.7 20:07:42 10° SSE 20:11:22 58° ENE 20:15:04 10° N visible
05 Sep 2.9 20:01:55 10° SSE 20:05:31 48° ENE 20:09:08 10° N visible
06 Sep 3.2 19:56:09 10° SE 19:59:39 39° ENE 20:03:11 10° N visible
07 Sep 3.4 19:50:25 10° SE 19:53:47 33° ENE 19:57:12 10° N visible
07 Sep 5.7 21:27:05 10° WSW 21:28:32 12° W 21:29:59 10° WNW visible
08 Sep 3.7 19:44:43 10° SE 19:47:56 28° ENE 19:51:11 10° NNE visible
08 Sep 5.6 21:20:33 10° SW 21:22:36 14° W 21:24:40 10° WNW visible
09 Sep 3.9 19:39:03 10° SE 19:42:04 24° ENE 19:45:08 10° NNE visible
09 Sep 5.4 21:14:11 10° SW 21:16:40 17° W 21:19:10 10° NW visible
10 Sep 4.1 19:33:26 10° ESE 19:36:13 20° ENE 19:39:02 10° NNE visible
10 Sep 5.2 21:07:56 10° SW 21:10:44 20° W 21:13:34 10° NW visible
11 Sep 4.3 19:27:52 10° ESE 19:30:22 17° ENE 19:32:54 10° NNE visible
11 Sep 4.9 21:01:45 10° SSW 21:04:48 24° W 21:07:54 10° NW visible
12 Sep 4.6 20:55:54 12° SSW 20:58:53 28° W 21:02:11 10° NW visible
